Date String (YYYY-MM-DD hh:mm:ss) UTC,Instrument flags,Ambient pressure (hPa),Sample flow (lpm),Bypass flow (lpm),Sample temperature (°C),Ambient temperature (°C),ASC tube jacket temperature (°C),LED temperature (°C),Box temperature (°C),Sample RH (%),Span deviation,Mass concentration (μg/m³),Mass concentration (μg/m³),Mass concentration (μg/m³)
DateTimeUTC,F1_M11,P_M11,Q1_M11,Q2_M11,T1_M11,T2_M11,T3_M11,T4_M11,T5_M11,U1_M11,ZSPAN_M11,X0_M11,X2_M11,X1_M11
2022-02-06 15:00:00,,0833.6,4.99,0.00,22.4,21.9,00.0,31.2,24.1,10.6,0000.0,0002.83,0001.91,0001.57
2022-02-06 15:01:00,,0833.6,5.00,0.00,22.4,21.9,00.0,31.2,24.2,10.6,0000.0,0002.81,0001.92,0001.57
2022-02-06 15:02:00,,0833.6,5.00,0.00,22.4,21.9,00.0,31.2,24.2,10.6,0000.0,0002.73,0001.93,0001.59
2022-02-06 15:03:00,,0833.6,5.01,0.00,22.4,21.8,00.0,31.2,24.2,10.6,0000.0,0002.63,0001.91,0001.60
2022-02-06 15:04:00,,0833.6,4.99,0.00,22.4,21.8,00.0,31.2,24.2,10.6,0000.0,0002.53,0001.88,0001.61
2022-02-06 15:05:00,,0833.7,4.99,0.00,22.4,21.8,00.0,31.3,24.2,10.6,0000.0,0002.50,0001.86,0001.62
2022-02-06 15:06:00,,0833.7,5.00,0.00,22.4,21.8,00.0,31.3,24.2,10.6,0000.0,0002.57,0001.89,0001.62
2022-02-06 15:07:00,,0833.7,4.99,0.00,22.4,21.8,00.0,31.3,24.2,10.7,0000.0,0002.59,0001.91,0001.64
2022-02-06 15:08:00,,0833.7,5.00,0.00,22.4,21.8,00.0,31.3,24.2,10.8,0000.0,0002.65,0001.92,0001.64
2022-02-06 15:09:00,,0833.7,4.99,0.00,22.4,21.8,00.0,31.3,24.2,10.9,0000.0,0002.68,0001.93,0001.66
2022-02-06 15:10:00,,0833.7,5.02,0.00,22.4,21.8,00.0,31.3,24.2,10.9,0000.0,0002.76,0001.95,0001.66
2022-02-06 15:11:00,,0833.7,4.99,0.00,22.4,21.8,00.0,31.3,24.2,11.0,0000.0,0002.85,0001.98,0001.66
2022-02-06 15:12:00,,0833.7,5.00,0.00,22.5,21.8,00.0,31.3,24.2,11.0,0000.0,0004.43,0001.99,0001.66
2022-02-06 15:13:00,,0833.7,4.99,0.00,22.5,21.8,00.0,31.3,24.2,11.0,0000.0,0004.57,0001.98,0001.66
2022-02-06 15:14:00,,0833.7,5.02,0.00,22.5,21.8,00.0,31.3,24.2,11.1,0000.0,0005.16,0002.02,0001.66
2022-02-06 15:15:00,,0833.8,4.99,0.00,22.5,21.8,00.0,31.3,24.3,11.1,0000.0,0005.25,0002.04,0001.68
2022-02-06 15:16:00,,0833.9,5.01,0.00,22.5,21.8,00.0,31.3,24.2,11.1,0000.0,0005.27,0002.04,0001.68
2022-02-06 15:17:00,,0833.9,5.00,0.00,22.5,21.8,00.0,31.3,24.2,11.1,0000.0,0005.59,0002.03,0001.69
2022-02-06 15:18:00,,0833.9,4.99,0.00,22.5,21.8,00.0,31.4,24.3,11.2,0000.0,0006.04,0002.01,0001.70
2022-02-06 15:19:00,,0834.0,5.01,0.00,22.5,21.9,00.0,31.4,24.3,11.2,0000.0,0006.09,0002.05,0001.72
2022-02-06 15:20:00,,0833.9,4.99,0.00,22.5,21.8,00.0,31.4,24.2,11.2,0000.0,0006.67,0002.14,0001.74
2022-02-06 15:21:00,,0833.9,5.02,0.00,22.5,21.8,00.0,31.4,24.3,11.4,0000.0,0007.30,0002.23,0001.77
2022-02-06 15:22:00,,0833.9,5.00,0.00,22.5,21.9,00.0,31.4,24.3,11.3,0000.0,0007.50,0002.28,0001.80
2022-02-06 15:23:00,,0833.9,4.99,0.00,22.5,21.9,00.0,31.4,24.3,11.3,0000.0,0006.54,0002.37,0001.81
2022-02-06 15:24:00,,0834.0,5.00,0.00,22.5,21.9,00.0,31.4,24.3,11.4,0000.0,0006.51,0002.47,0001.83
2022-02-06 15:25:00,,0834.0,5.00,0.00,22.5,21.9,00.0,31.4,24.3,11.3,0000.0,0006.39,0002.54,0001.85
2022-02-06 15:26:00,,0834.0,4.99,0.00,22.5,21.9,00.0,31.4,24.3,11.3,0000.0,0006.54,0002.62,0001.86
2022-02-06 15:27:00,,0834.0,5.01,0.00,22.6,21.9,00.0,31.4,24.3,11.3,0000.0,0006.65,0002.69,0001.88
2022-02-06 15:28:00,,0834.0,5.01,0.00,22.6,21.9,00.0,31.4,24.3,11.3,0000.0,0006.63,0002.73,0001.89
2022-02-06 15:29:00,,0834.0,4.98,0.00,22.6,21.9,00.0,31.4,24.3,11.4,0000.0,0006.37,0002.79,0001.90
2022-02-06 15:30:00,,0834.1,5.01,0.00,22.6,21.9,00.0,31.5,24.3,11.4,0000.0,0006.50,0002.81,0001.90
2022-02-06 15:31:00,,0834.1,5.00,0.00,22.6,21.9,00.0,31.5,24.3,11.4,0000.0,0006.21,0002.80,0001.91
2022-02-06 15:32:00,,0834.1,5.01,0.00,22.6,21.9,00.0,31.5,24.4,11.5,0000.0,0005.87,0002.75,0001.90
2022-02-06 15:33:00,,0834.1,4.98,0.00,22.6,21.9,00.0,31.5,24.4,11.5,0000.0,0005.90,0002.71,0001.91
2022-02-06 15:34:00,,0834.1,5.02,0.00,22.6,21.9,00.0,31.5,24.4,11.5,0000.0,0005.78,0002.66,0001.91
2022-02-06 15:35:00,,0834.1,4.99,0.00,22.6,21.9,00.0,31.5,24.4,11.5,0000.0,0005.85,0002.66,0001.90
2022-02-06 15:36:00,,0834.1,5.00,0.00,22.6,22.0,00.0,31.5,24.4,11.5,0000.0,0005.62,0002.61,0001.90
2022-02-06 15:37:00,,0834.1,5.00,0.00,22.6,22.0,00.0,31.5,24.4,11.4,0000.0,0005.40,0002.54,0001.88
2022-02-06 15:38:00,,0834.1,4.99,0.00,22.6,22.0,00.0,31.5,24.4,11.4,0000.0,0005.37,0002.50,0001.87
2022-02-06 15:39:00,,0834.1,5.00,0.00,22.7,22.0,00.0,31.5,24.4,11.3,0000.0,0006.36,0002.48,0001.87
2022-02-06 15:40:00,,0834.1,5.00,0.00,22.7,22.0,00.0,31.5,24.5,11.3,0000.0,0006.22,0002.52,0001.87
2022-02-06 15:41:00,,0834.1,5.00,0.00,22.7,22.0,00.0,31.6,24.5,11.2,0000.0,0006.16,0002.53,0001.88
2022-02-06 15:42:00,,0834.1,4.99,0.00,22.7,22.0,00.0,31.6,24.5,11.3,0000.0,0006.14,0002.53,0001.87
2022-02-06 15:43:00,,0834.2,5.01,0.00,22.7,22.0,00.0,31.6,24.5,11.3,0000.0,0006.35,0002.55,0001.87
2022-02-06 15:44:00,,0834.2,4.98,0.00,22.7,22.0,00.0,31.6,24.5,11.3,0000.0,0006.32,0002.60,0001.87
2022-02-06 15:45:00,,0834.3,5.01,0.00,22.7,22.1,00.0,31.6,24.5,11.3,0000.0,0006.30,0002.63,0001.88
2022-02-06 15:46:00,,0834.2,4.99,0.00,22.7,22.1,00.0,31.6,24.5,11.3,0000.0,0006.11,0002.61,0001.89
2022-02-06 15:47:00,,0834.3,4.99,0.00,22.8,22.1,00.0,31.6,24.6,11.3,0000.0,0006.54,0002.61,0001.89
2022-02-06 15:48:00,,0834.2,5.01,0.00,22.8,22.1,00.0,31.6,24.6,11.3,0000.0,0006.83,0002.64,0001.90
2022-02-06 15:49:00,,0834.4,4.99,0.00,22.8,22.1,00.0,31.6,24.6,11.3,0000.0,0007.10,0002.61,0001.90
2022-02-06 15:50:00,,0834.3,5.00,0.00,22.8,22.1,00.0,31.7,24.6,11.3,0000.0,0007.05,0002.61,0001.91
2022-02-06 15:51:00,,0834.4,5.01,0.00,22.8,22.1,00.0,31.7,24.6,11.3,0000.0,0007.22,0002.56,0001.90
2022-02-06 15:52:00,,0834.4,5.00,0.00,22.8,22.1,00.0,31.7,24.6,11.3,0000.0,0007.38,0002.63,0001.89
2022-02-06 15:53:00,,0834.4,5.00,0.00,22.8,22.1,00.0,31.7,24.7,11.3,0000.0,0007.38,0002.63,0001.89
2022-02-06 15:54:00,,0834.4,5.00,0.00,22.8,22.2,00.0,31.7,24.7,11.4,0000.0,0006.95,0002.58,0001.89
2022-02-06 15:55:00,,0834.4,5.01,0.00,22.8,22.2,00.0,31.7,24.7,11.4,0000.0,0006.71,0002.52,0001.87
2022-02-06 15:56:00,,0834.5,4.99,0.00,22.8,22.2,00.0,31.7,24.7,11.3,0000.0,0006.64,0002.47,0001.86
2022-02-06 15:57:00,,0834.5,5.01,0.00,22.9,22.2,00.0,31.7,24.7,11.2,0000.0,0006.76,0002.51,0001.87
2022-02-06 15:58:00,,0834.6,4.99,0.00,22.9,22.2,00.0,31.7,24.7,11.2,0000.0,0006.37,0002.48,0001.87
2022-02-06 15:59:00,,0834.5,5.00,0.00,22.9,22.2,00.0,31.7,24.7,11.2,0000.0,0006.13,0002.50,0001.88
